Weather History for K1A6 - December, 2013

Change the Weather History Date:

Sunday, December 1, 2013

  Actual Average (KLOZ) Record (KLOZ)
Temperature  
Mean Temperature 38 °F 42 °F  
Max Temperature 52 °F 52 °F 72 °F (2006)
Min Temperature 24 °F 33 °F 8 °F (1964)
Degree Days  
Heating Degree Days 27 23  
Month to date heating degree days 23  
Since 1 July heating degree days 853  
Cooling Degree Days 0 0  
Month to date cooling degree days 0  
Moisture  
Dew Point 31 °F    
Average Humidity 77    
Maximum Humidity 96    
Minimum Humidity 47    
Precipitation  
Precipitation 0.00 in 0.14 in 1.56 in (1996)
Month to date precipitation 0.14  
Sea Level Pressure  
Sea Level Pressure 30.15 in    
Wind  
Wind Speed 1 mph (South)    
Max Wind Speed 8 mph    
Max Gust Speed -    
Visibility 10 miles    
Events      
T = Trace of Precipitation, MM = Missing Value Source: NWS Daily Summary

Daily Weather History Graph

Daily Weather History Graph

Search for Another Location

Airport or City:

Trip Planner

Search our weather history database for the weather conditions in past years. The results will help you decide how hot, cold, wet, or windy it might be!

Date:

Astronomy

Dec. 01, 2013 Rise Set
Actual Time 6:28 AM CST 4:19 PM CST
Civil Twilight 6:00 AM CST 4:47 PM CST
Nautical Twilight 5:28 AM CST 5:19 PM CST
Astronomical Twilight 4:57 AM CST 5:50 PM CST
Moon 4:47 AM CST (12/1) 3:26 PM CST (12/1)
Length of Visible Light 10h 47m
Length of Day
9h 50m
Waning Crescent, 2% of the Moon is Illuminated
Dec 1
Waning Crescent
Dec 2
New
Dec 9
First Quarter
Dec 17
Full
Dec 25
Last Quarter

Hourly Weather History & Observations

Time (CST) Temp. Windchill Dew Point Humidity Pressure Visibility Wind Dir Wind Speed Gust Speed Precip Events Conditions
12:15 AM 28.6 °F - 27.1 °F 94% 30.28 in 10.0 mi Calm Calm - N/A   Clear
12:35 AM 29.7 °F - 27.0 °F 90% 30.27 in 10.0 mi Calm Calm - N/A   Clear
12:55 AM 28.4 °F - 27.0 °F 94% 30.26 in 10.0 mi Calm Calm - N/A   Clear
1:15 AM 27.7 °F - 26.8 °F 96% 30.27 in 7.0 mi Calm Calm - N/A   Clear
1:35 AM 27.1 °F - 25.7 °F 94% 30.26 in 7.0 mi Calm Calm - N/A   Clear
1:55 AM 28.2 °F - 26.6 °F 94% 30.27 in 10.0 mi Calm Calm - N/A   Clear
2:15 AM 27.7 °F - 26.2 °F 94% 30.27 in 10.0 mi Calm Calm - N/A   Clear
2:35 AM 27.3 °F - 25.3 °F 92% 30.27 in 10.0 mi Calm Calm - N/A   Clear
2:55 AM 27.3 °F - 25.7 °F 94% 30.27 in 10.0 mi Calm Calm - N/A   Clear
3:15 AM 25.9 °F - 24.6 °F 95% 30.26 in 10.0 mi Calm Calm - N/A   Clear
3:35 AM 26.6 °F - 25.0 °F 94% 30.26 in 10.0 mi Calm Calm - N/A   Clear
3:55 AM 26.1 °F - 24.4 °F 94% 30.26 in 10.0 mi Calm Calm - N/A   Clear
4:15 AM 25.2 °F - 23.9 °F 95% 30.25 in 10.0 mi Calm Calm - N/A   Clear
4:35 AM 25.2 °F - 23.4 °F 93% 30.26 in 10.0 mi Calm Calm - N/A   Clear
4:55 AM 25.3 °F - 23.4 °F 92% 30.26 in 10.0 mi Calm Calm - N/A   Clear
5:15 AM 25.3 °F - 23.9 °F 94% 30.26 in 10.0 mi Calm Calm - N/A   Clear
5:35 AM 25.3 °F - 23.9 °F 94% 30.25 in 10.0 mi Calm Calm - N/A   Clear
5:55 AM 25.0 °F - 23.4 °F 94% 30.25 in 10.0 mi Calm Calm - N/A   Clear
6:15 AM 24.8 °F - 23.5 °F 95% 30.26 in 10.0 mi Calm Calm - N/A   Clear
6:35 AM 24.4 °F - 22.8 °F 94% 30.26 in 10.0 mi Calm Calm - N/A   Clear
6:55 AM 24.8 °F - 23.5 °F 95% 30.26 in 10.0 mi Calm Calm - N/A   Clear
7:15 AM 25.2 °F - 23.7 °F 94% 30.26 in 10.0 mi Calm Calm - N/A   Clear
7:35 AM 26.4 °F - 24.8 °F 94% 30.26 in 10.0 mi Calm Calm - N/A   Clear
7:55 AM 28.9 °F - 27.3 °F 94% 30.26 in 10.0 mi Calm Calm - N/A   Clear
8:15 AM 32.2 °F - 28.4 °F 86% 30.26 in 10.0 mi Calm Calm - N/A   Clear
8:35 AM 35.1 °F - 29.3 °F 80% 30.25 in 10.0 mi Calm Calm - N/A   Clear
8:55 AM 39.2 °F - 31.1 °F 73% 30.24 in 10.0 mi Calm Calm - N/A   Scattered Clouds
9:15 AM 41.7 °F - 31.1 °F 66% 30.24 in 10.0 mi Calm Calm - N/A   Scattered Clouds
9:55 AM 45.1 °F 41.4 °F 30.4 °F 56% 30.23 in 10.0 mi South 6.9 mph - N/A   Scattered Clouds
10:15 AM 46.0 °F 41.9 °F 30.9 °F 56% 30.22 in 10.0 mi South 8.1 mph - N/A   Clear
10:35 AM 47.5 °F - 31.1 °F 53% 30.21 in 10.0 mi SSE 5.8 mph - N/A   Scattered Clouds
11:35 AM 50.4 °F - 32.0 °F 49% 30.16 in 10.0 mi SSE 5.8 mph - N/A   Clear
12:35 PM 51.8 °F - 32.5 °F 48% 30.13 in 10.0 mi SSE 3.5 mph - N/A   Mostly Cloudy
12:55 PM 52.5 °F - 32.7 °F 47% 30.12 in 10.0 mi South 4.6 mph - N/A   Overcast
1:15 PM 52.7 °F - 32.9 °F 47% 30.11 in 10.0 mi South 8.1 mph - N/A   Overcast
1:35 PM 52.7 °F - 32.7 °F 47% 30.10 in 10.0 mi South 8.1 mph - N/A   Overcast
2:35 PM 52.0 °F - 32.9 °F 48% 30.09 in 10.0 mi South 4.6 mph - N/A   Overcast
2:55 PM 51.8 °F - 32.9 °F 49% 30.08 in 10.0 mi Calm Calm - N/A   Overcast
3:15 PM 51.8 °F - 32.5 °F 48% 30.08 in 10.0 mi SSW 4.6 mph - N/A   Overcast
3:35 PM 51.3 °F - 32.5 °F 49% 30.07 in 10.0 mi Calm Calm - N/A   Overcast
3:55 PM 51.3 °F - 32.5 °F 49% 30.07 in 10.0 mi Calm Calm - N/A   Overcast
4:15 PM 50.9 °F - 32.7 °F 50% 30.07 in 10.0 mi Calm Calm - N/A   Overcast
4:55 PM 48.2 °F - 35.1 °F 60% 30.07 in 10.0 mi Calm Calm - N/A   Overcast
5:15 PM 47.7 °F - 36.0 °F 64% 30.07 in 10.0 mi Calm Calm - N/A   Overcast
5:35 PM 47.5 °F - 36.0 °F 64% 30.06 in 10.0 mi Calm Calm - N/A   Overcast
5:55 PM 46.0 °F - 37.6 °F 72% 30.06 in 10.0 mi Calm Calm - N/A   Overcast
6:15 PM 46.2 °F - 37.4 °F 71% 30.06 in 10.0 mi Calm Calm - N/A   Overcast
6:35 PM 45.7 °F - 37.0 °F 72% 30.05 in 10.0 mi Calm Calm - N/A   Overcast
6:55 PM 45.0 °F - 37.8 °F 76% 30.05 in 10.0 mi Calm Calm - N/A   Overcast
7:15 PM 45.0 °F - 37.4 °F 75% 30.04 in 10.0 mi Calm Calm - N/A   Overcast
7:35 PM 45.0 °F - 37.4 °F 75% 30.04 in 10.0 mi Calm Calm - N/A   Overcast
7:55 PM 44.8 °F - 37.6 °F 76% 30.04 in 10.0 mi Calm Calm - N/A   Overcast
8:15 PM 44.6 °F - 37.9 °F 77% 30.04 in 10.0 mi Calm Calm - N/A   Overcast
8:35 PM 44.6 °F - 38.1 °F 78% 30.04 in 10.0 mi Calm Calm - N/A   Overcast
8:55 PM 43.7 °F - 38.7 °F 82% 30.03 in 10.0 mi Calm Calm - N/A   Overcast
9:15 PM 44.2 °F - 38.3 °F 80% 30.03 in 10.0 mi Calm Calm - N/A   Overcast
9:35 PM 44.1 °F - 37.8 °F 78% 30.03 in 10.0 mi Calm Calm - N/A   Overcast
9:55 PM 43.9 °F - 37.9 °F 80% 30.02 in 10.0 mi Calm Calm - N/A   Overcast
10:15 PM 43.2 °F - 38.7 °F 84% 30.02 in 10.0 mi Calm Calm - N/A   Overcast
10:35 PM 43.3 °F - 38.3 °F 82% 30.01 in 10.0 mi Calm Calm - N/A   Overcast
10:55 PM 43.2 °F - 38.3 °F 83% 30.01 in 10.0 mi Calm Calm - N/A   Overcast
11:15 PM 43.5 °F - 38.5 °F 82% 30.00 in 10.0 mi Calm Calm - N/A   Overcast
11:35 PM 43.2 °F - 38.7 °F 84% 30.00 in 10.0 mi Calm Calm - N/A   Overcast
11:55 PM 42.8 °F - 39.0 °F 86% 29.99 in 10.0 mi Calm Calm - N/A   Overcast